Regional Weather Roundup
Issued by NWS

Home | Current Version | Previous Version | Text Only | Print | Product List | Glossary Off
Versions: 1 2 3 4 5 6 7 8 9 10 11 12 13 14 15 16 17 18 19 20 21 22 23 24 25 26 27 28 29 30 31 32 33 34 35 36 37 38 39 40 41 42 43 44 45 46 47 48 49 50

000
ASUS43 KFSD 030510
RWRSD

WEATHER ROUNDUP FOR SOUTH DAKOTA
NATIONAL WEATHER SERVICE SIOUX FALLS SD
1200 AM CDT WED JUN 03 2015

NOTE: "FAIR" INDICATES FEW OR NO CLOUDS BELOW 12,000 FEET WITH NO
SIGNIFICANT WEATHER AND/OR OBSTRUCTIONS TO VISIBILITY.


SDZ001>005-009-010-012>017-030600-
NORTHWEST AND NORTH CENTRAL SOUTH DAKOTA

CITY           SKY/WX    TMP DP  RH WIND       PRES   REMARKS
BUFFALO          N/A     57  52  83 NW9       29.88R
FAITH            N/A     63  54  72 NW20      29.89R
MOBRIDGE       MOCLDY    67  63  87 NW7       29.77R
$$

SDZ012>016-024>037-041>051-057-063-072>074-030600-
SOUTHWEST AND SOUTH CENTRAL SOUTH DAKOTA

CITY           SKY/WX    TMP DP  RH WIND       PRES   REMARKS
RAPID CTY ARPT RAIN      57  53  86 N25G35    29.95F
PIERRE         TSTM      68  62  81 SW16      29.79R
CUSTER         MOCLDY    51  32  48 N8G18     30.01S
ELLSWORTH AFB  LGT RAIN  57  55  91 NW16G25   29.99
PHILIP         CLOUDY    64  60  87 W6        29.80R
PINE RIDGE     MOCLDY    59  54  83 NW16G23   29.93R
WINNER         TSTM      65  60  84 W23G31    29.87R
$$

SDZ004>011-016>023-039-040-030600-
NORTHEAST SOUTH DAKOTA

CITY           SKY/WX    TMP DP  RH WIND       PRES   REMARKS
ABERDEEN       CLOUDY    72  64  76 S12       29.71S
WATERTOWN      MOCLDY    70  61  73 S13       29.78S
BROOKINGS      CLOUDY    70  61  73 S17G25    29.83S
SISSETON         N/A     69  62  78 S18       29.69F
$$

SDZ017-020-022-023-036>040-048>070-030600-
SOUTHEAST SOUTH DAKOTA

CITY           SKY/WX    TMP DP  RH WIND       PRES   REMARKS
SIOUX FALLS    CLOUDY    69  60  73 S16       29.84S
HURON          CLOUDY    72  63  73 S12       29.75F
CHAMBERLAIN    DRIZZLE   67  61  79 SW14G22   29.82R
MITCHELL       CLOUDY    73  63  70 S17G24    29.78F
YANKTON        CLOUDY    68  61  77 SE13      29.82F
$$

ABBREVIATIONS USED IN REMARKS
   TC - TEMPERATURE IN CELSIUS
  WCI - WIND CHILL INDEX
   HX - HEAT INDEX
  VSB - VISIBILITY



USA.gov is the U.S. government's official web portal to all federal, state and local government web resources and services.